Regional Weather Roundup
Issued by NWS Northern Indiana

Home | Current Version | Previous Version | Graphics & Text | Print | Product List | Glossary On
Versions: 1 2 3 4 5 6 7 8 9 10 11 12 13 14 15 16 17 18 19 20 21 22 23 24 25 26 27 28 29 30 31 32 33 34 35 36 37 38 39 40 41 42 43 44 45 46 47 48 49 50
000
ASUS43 KIWX 301010
RWRIWX

KIWX WEATHER ROUNDUP
NATIONAL WEATHER SERVICE NORTHERN INDIANA
600 AM EDT WED JUL 30 2014

NOTE: "FAIR" INDICATES FEW OR NO CLOUDS BELOW 12,000 FEET WITH NO
SIGNIFICANT WEATHER AND/OR OBSTRUCTIONS TO VISIBILITY.

* THESE STATIONS ARE NOT UNDER NWS QUALITY CONTROL. THEY ALSO MAY NOT
  REPORT WEATHER SUCH AS PRECIPITATION OR FOG.

INZ001>027-301100-
NORTHERN INDIANA

CITY           SKY/WX    TMP DP  RH WIND       PRES   REMARKS
GARY*          PTCLDY    59  55  88 W7        30.02S
VALPARAISO     CLEAR     58  55  90 W5        30.02R
MICHIGAN CITY* FOG       54  54 100 CALM      30.02S VSB 1/2
LAPORTE*         N/A     52  52 100 CALM      30.02S FOG
KNOX*            N/A     51  49  92 CALM      30.01R VSB<1/4
SOUTH BEND     CLEAR     58  55  90 CALM      30.02R
GOSHEN         PTCLDY    58  56  93 W3        30.01R FOG
MONTICELLO*    MOCLDY    55  55  98 CALM      30.01S
LOGANSPORT*    CLEAR     54  52  94 SW3       30.03R FOG
ROCHESTER*     CLEAR     57  55  94 CALM      30.02S
WARSAW*        MOCLDY    57  55  94 CALM      30.01S
ANGOLA*        PTCLDY    57  46  67 CALM      30.00S
FORT WAYNE     CLOUDY    59  57  93 SW6       30.01S
HUNTINGTON*    CLOUDY    58  57  96 W5        30.01R
PERU/GRISSOM   CLEAR     56  56 100 W3        30.02R
MARION*        PTCLDY    54  53  97 CALM      30.02S

$$
INZ028>050-301100-
CENTRAL INDIANA

CITY           SKY/WX    TMP DP  RH WIND       PRES   REMARKS
LAFAYETTE      RAIN      59  58  96 CALM      30.03R
KOKOMO*        CLEAR     57  55  94 W7        30.02S
MUNCIE*        CLEAR     60  56  86 SW7       30.03R
INDIANAPOLIS   PTCLDY    57  56  96 SW6       30.03R

$$
MIZ043>046-050>051-056>058-064>065-071>073-077>080-301100-
SOUTHWEST LOWER MICHIGAN

CITY           SKY/WX    TMP DP  RH WIND       PRES   REMARKS
BATTLE CREEK   PTCLDY    58  54  86 CALM      30.00R
BENTON HARBOR  CLEAR     53  52  96 CALM      30.00S FOG
COLDWATER*     MOCLDY    58  56  95 CALM      30.00R
HILLSDALE*     MOCLDY    53  53 100 CALM      30.00R FOG
HOLLAND        CLEAR     58  55  90 W5        30.00R
GRAND RAPIDS   PTCLDY    57  55  93 CALM      29.99R
KALAMAZOO      CLEAR     57  54  89 CALM      30.01R FOG
STURGIS*       PTCLDY    55  55 100 SW5       30.00S FOG
THREE RIVERS*  FAIR      57  57  99 CALM      30.01S

$$
OHZ001>008-015>018-024>025-301100-
NORTHWEST OHIO

CITY           SKY/WX    TMP DP  RH WIND       PRES   REMARKS
WAUSEON*       CLOUDY    57  57 100 SW6       29.99S
DEFIANCE       CLOUDY    61  57  87 CALM      29.99F
FINDLAY        CLOUDY    57  54  89 SW3       30.00S
TOLEDO EXPRESS CLOUDY    57  55  93 SW3       29.98S
TOLEDO METCALF MOCLDY    58  55  90 SW5       30.00R
LIMA           PTCLDY    57  55  93 S6        30.02R FOG

$$
&&



USA.gov is the U.S. government's official web portal to all federal, state and local government web resources and services.